Lapse_Rate
5.5 5.8 5.7 5.7 5.9 6.1 6.2 6.0 6.1 6.0 5.8 5.8 6.1 6.0 5.5 5.2 5.5 5.6 5.5 5.3 5.4 5.2 5.1 5.1 5.2 5.1 5.1 5.1 5.1 5.1 5.0 5.0 4.9 4.9 4.9 5.0 5.0 5.1
5.8 5.9 5.8 5.7 5.9 6.1 6.1 6.0 6.0 6.1 6.1 5.6 5.9 6.0 5.7 5.4 5.4 5.5 5.5 5.2 5.2 5.2 5.0 4.9 5.0 4.9 4.8 4.9 4.8 4.7 4.7 4.7 4.6 4.6 4.6 4.7 4.8 4.8
6.4 6.3 6.1 6.1 6.2 6.3 6.2 6.3 6.3 6.3 6.3 6.0 5.7 5.9 6.0 5.7 5.5 5.5 5.3 5.3 5.3 5.1 5.0 4.7 4.6 4.6 4.6 4.7 4.6 4.6 4.5 4.4 4.3 4.4 4.5 4.6 4.6 4.5
6.7 6.7 6.4 6.3 6.4 6.5 6.5 6.3 6.4 6.3 6.4 6.4 6.1 6.0 5.9 5.8 5.5 5.5 5.6 5.3 5.2 5.1 4.8 4.6 4.3 4.4 4.5 4.5 4.4 4.3 4.2 4.1 4.0 4.1 4.3 4.3 4.3 4.3
6.6 6.7 6.7 6.4 6.7 6.6 6.6 6.6 6.5 6.3 6.5 6.6 6.6 6.2 6.2 6.2 6.1 5.7 5.4 5.6 5.5 5.2 5.0 4.5 4.3 4.3 4.4 4.4 4.3 4.1 4.1 4.0 3.9 4.0 4.1 4.1 3.9 4.1
6.6 6.6 6.7 6.8 6.7 6.6 6.5 6.5 6.7 6.7 6.5 6.5 6.7 6.6 6.5 6.1 6.1 5.8 5.4 5.5 5.5 5.4 5.2 4.6 4.4 4.4 4.3 4.4 4.4 4.2 4.0 4.0 3.9 3.9 4.2 4.0 4.0 3.9
6.6 6.8 6.7 6.7 6.7 6.7 6.6 6.7 6.6 6.6 6.7 6.7 6.8 6.8 6.8 6.5 6.0 5.9 5.9 5.6 5.7 5.4 5.4 5.1 4.6 4.4 4.2 4.3 4.5 4.3 4.2 4.1 4.2 4.0 3.7 4.1 4.1 4.0
6.8 6.8 6.8 6.7 6.7 6.6 6.7 6.9 6.9 6.8 6.7 6.8 6.8 7.0 7.0 6.7 6.1 5.9 5.8 5.7 5.9 5.4 5.4 5.5 5.1 4.8 4.4 4.4 4.5 4.6 4.5 4.3 4.2 4.2 4.2 4.3 4.2 4.1
6.7 6.8 6.8 6.7 6.8 6.7 6.8 6.9 7.0 7.1 6.9 6.7 6.7 6.9 6.9 6.4 6.1 6.1 6.0 5.7 5.8 5.8 5.7 6.0 5.3 5.3 4.7 4.8 4.6 4.5 4.6 4.6 4.3 4.2 3.9 4.1 4.2 4.2
6.9 6.7 6.7 6.8 6.9 6.8 7.0 6.9 6.9 6.9 7.0 7.1 6.8 6.8 6.8 6.6 6.2 5.8 6.0 5.7 5.8 5.9 5.6 5.6 5.7 5.3 5.1 4.9 4.7 4.6 4.7 4.7 4.5 4.3 4.1 4.3 4.3 4.2
6.8 6.8 6.9 6.9 6.9 6.8 6.9 6.9 6.8 6.8 7.2 7.1 6.7 6.8 6.8 6.5 6.3 6.2 6.1 5.6 5.7 5.9 5.8 5.2 5.6 5.5 5.5 5.0 4.8 4.6 4.4 4.5 4.6 4.4 4.3 4.1 4.3 4.2
6.8 6.8 6.8 6.8 6.7 6.4 6.5 6.7 6.7 6.8 7.0 6.9 6.6 6.3 6.5 6.4 6.1 6.1 5.8 5.6 5.4 5.6 6.1 5.6 5.4 5.3 5.5 5.6 4.8 4.5 4.5 4.2 4.3 4.6 4.6 4.3 3.9 3.8
6.7 6.6 6.6 6.7 6.7 6.6 6.6 6.6 6.7 6.6 6.6 6.6 6.5 6.4 6.3 6.2 6.0 5.6 5.5 5.3 5.4 5.5 5.5 5.5 5.5 5.4 5.2 5.0 5.2 4.7 4.5 4.4 4.3 4.1 4.2 4.2 3.9 4.0
6.5 6.5 6.5 6.5 6.5 6.4 6.4 6.4 6.3 6.2 6.3 6.4 6.3 6.3 6.1 5.9 5.6 5.4 5.4 5.4 5.1 5.0 5.1 5.0 4.8 4.9 4.8 4.8 4.5 4.5 4.3 4.3 4.4 4.4 4.3 4.3 4.2 4.2
6.5 6.5 6.5 6.5 6.6 6.6 6.3 6.2 6.0 6.0 6.1 6.2 6.2 6.1 5.9 5.6 5.4 5.3 5.0 4.8 4.8 4.7 4.7 4.8 4.8 4.6 4.6 4.6 4.4 4.2 4.7 4.6 4.5 4.4 4.3 4.3 4.4 4.5
6.4 6.5 6.6 6.6 6.6 6.5 6.3 6.1 6.0 6.0 6.0 6.1 6.1 5.9 5.9 5.6 5.2 5.0 5.0 4.5 4.4 4.6 4.6 4.6 4.5 4.4 4.4 4.6 4.1 4.3 4.5 4.5 4.6 4.5 4.3 4.4 4.5 4.6
6.1 6.2 6.1 6.1 6.3 6.3 6.1 6.0 6.1 6.2 6.2 6.0 5.7 5.5 5.4 5.4 5.1 4.5 4.6 4.6 4.5 4.4 4.3 4.3 4.3 4.5 4.3 4.4 4.4 4.5 4.6 4.5 4.7 4.5 4.4 4.5 4.7 4.9
5.8 5.9 5.9 5.9 5.9 6.1 6.1 6.2 6.3 6.2 6.0 5.9 5.6 5.3 5.2 5.2 5.2 4.9 4.6 4.4 4.5 4.5 4.4 4.5 4.5 4.5 4.6 4.7 4.5 4.8 4.7 4.8 4.8 4.5 4.5 4.8 5.1 5.3
5.3 5.4 5.6 5.7 5.8 5.9 5.9 6.0 6.1 6.0 5.8 5.8 5.7 5.3 5.2 5.1 5.0 5.1 5.0 4.7 4.5 4.9 4.4 4.6 4.3 4.8 4.6 4.6 4.9 4.7 4.9 4.7 4.7 4.5 4.8 5.0 5.2 5.4
4.8 4.8 5.0 5.2 5.2 5.3 5.3 5.3 5.4 5.6 5.5 5.4 5.5 5.1 5.1 5.1 4.8 4.7 5.0 4.7 4.7 4.9 4.9 4.8 4.9 5.2 5.1 4.8 4.7 4.8 5.2 5.2 5.4 5.4 5.3 5.3 5.3 5.6
4.4 4.5 4.7 4.7 4.8 5.0 5.0 5.0 5.2 5.2 5.3 5.4 5.4 5.3 4.5 4.3 4.7 4.8 4.7 4.9 5.0 4.9 5.0 5.0 5.1 5.3 5.3 5.4 5.2 5.2 5.4 5.7 5.9 6.0 6.0 6.0 5.9 5.9
4.3 4.4 4.4 4.5 4.7 4.9 5.0 5.1 5.1 5.1 5.2 5.2 5.2 5.2 5.0 5.0 5.3 5.3 5.3 5.3 5.5 5.6 5.6 5.5 5.8 5.9 5.9 6.1 6.3 6.2 6.1 6.1 6.4 6.5 6.5 6.6 6.4 6.4
4.4 4.5 4.5 4.5 4.6 4.7 4.9 5.0 5.1 5.1 5.3 5.4 5.5 5.6 5.7 5.7 5.8 5.9 5.9 5.9 6.1 6.2 6.2 6.1 6.1 6.1 6.4 6.6 6.7 6.4 6.6 6.7 6.5 6.4 6.6 6.6 6.5 6.6
Wind_Speed
5 5 3 3 4 3 3 3 4 2 2 3 3 7 12 8 4 4 7 10 12 14 16 15 14 11 9 8 8 7 8 8 6 7 7 6 6 6
5 7 6 4 4 3 3 3 3 4 2 3 3 3 8 8 6 6 8 10 10 12 15 16 17 16 14 13 12 10 11 10 11 9 8 8 7 7
7 8 7 6 4 4 4 3 3 3 4 3 2 5 5 5 5 9 9 10 10 12 14 16 17 18 18 18 17 15 14 13 12 13 13 11 10 8
7 8 7 5 6 6 4 6 4 4 4 5 2 3 4 6 6 4 7 11 11 11 12 15 15 17 19 20 20 20 18 17 15 15 16 16 13 12
6 6 7 6 6 4 4 5 4 4 4 3 4 2 3 2 2 2 6 9 12 15 14 14 16 17 18 20 21 22 21 20 20 19 18 18 17 17
3 4 5 7 7 7 6 6 5 4 3 3 3 3 2 3 1 3 3 2 4 12 15 16 15 15 15 20 20 22 22 22 22 21 21 20 21 20
5 5 5 7 9 8 4 5 5 4 3 3 2 2 2 2 3 2 3 2 2 5 4 9 13 13 15 18 20 22 24 24 24 24 22 22 22 22
4 5 5 8 8 9 9 8 7 6 5 4 3 4 5 4 3 3 2 1 3 2 1 3 5 5 17 17 19 20 22 24 26 26 24 23 23 24
5 4 4 3 8 6 8 9 9 8 6 4 5 6 4 5 3 3 4 3 4 3 1 3 2 4 17 21 19 20 20 21 21 22 23 24 24 24
5 5 5 5 6 6 5 5 6 5 8 7 5 6 5 8 7 6 5 3 1 2 3 3 1 5 9 15 15 16 17 19 19 20 21 20 21 24
4 5 6 6 7 8 5 6 5 6 12 17 19 20 19 17 13 3 3 3 4 3 5 3 3 3 3 4 16 14 12 13 14 17 20 20 20 21
3 4 7 6 3 6 5 6 6 5 4 3 3 9 18 19 19 11 5 6 5 1 4 5 3 3 3 2 4 8 11 10 10 11 14 16 15 13
3 3 2 14 11 5 7 4 4 3 4 4 4 4 4 6 10 12 13 7 4 6 4 4 2 2 2 3 2 4 10 9 8 6 9 11 12 15
4 4 5 13 10 8 4 7 10 6 3 3 4 6 6 6 4 9 14 14 15 13 10 15 3 4 3 1 3 1 3 8 7 5 7 8 10 12
4 7 11 11 10 6 6 9 7 3 4 5 6 6 5 5 9 6 11 11 11 14 17 15 6 4 4 4 3 3 2 3 9 5 7 7 6 9
9 7 8 10 10 8 6 6 5 5 6 6 6 6 3 2 3 3 2 1 1 4 16 18 15 8 3 6 3 2 3 3 2 5 6 5 11 14
10 5 4 4 3 3 4 4 4 5 6 6 6 4 4 2 4 3 4 2 4 3 5 2 12 11 9 4 4 7 5 3 4 3 3 3 4 11
7 5 5 5 4 3 3 3 3 5 4 5 4 3 4 4 4 2 2 4 5 6 6 2 2 1 2 6 16 8 4 6 4 6 2 3 5 8
6 5 4 2 3 4 4 4 4 4 5 3 3 4 4 4 4 3 4 4 5 6 6 3 3 4 5 8 3 28 10 6 3 3 6 6 4 5
5 4 4 4 4 4 4 4 4 4 4 4 4 3 4 3 4 4 4 5 6 5 5 3 4 6 8 7 3 3 30 7 7 8 5 2 2 4
5 5 5 5 4 4 4 4 5 5 5 5 5 5 4 4 5 5 6 9 9 5 7 7 10 15 3 2 2 4 3 30 14 8 4 5 3 3
5 5 6 5 6 5 5 5 5 5 5 5 5 5 5 5 5 6 6 7 7 7 8 7 3 3 4 7 10 7 2 1 21 18 13 11 5 6
6 6 6 6 6 6 6 6 6 6 5 6 5 5 5 6 6 6 6 7 7 8 7 7 2 3 6 7 10 8 4 4 4 6 5 10 11 9
Wind_Direction
182 183 192 217 220 194 170 165 157 201 272 272 170 199 165 177 218 234 243 247 242 243 244 245 247 246 249 256 266 263 235 232 240 217 211 215 237 271
182 182 200 210 213 203 181 177 174 170 200 211 232 185 185 168 197 229 251 260 255 253 250 248 246 246 245 246 250 253 247 242 238 232 221 221 230 241
173 180 195 200 210 205 179 184 214 180 197 279 218 200 174 193 204 235 249 247 259 262 259 255 250 246 245 244 245 246 246 246 243 235 230 231 232 236
189 176 190 193 200 204 190 199 200 204 179 219 248 232 211 218 222 214 231 238 248 261 267 263 263 259 251 248 246 245 245 244 244 243 239 237 231 231
199 183 188 195 195 193 187 189 201 210 202 179 228 220 222 198 200 238 247 249 251 262 261 264 264 264 259 252 249 247 246 246 246 245 242 239 237 234
265 222 203 197 197 197 198 201 196 197 200 192 206 238 219 255 165 220 271 256 259 263 258 256 267 270 272 263 257 254 249 248 249 250 248 242 240 236
261 258 231 224 216 203 182 201 192 200 187 197 200 190 223 225 207 208 224 254 286 242 251 253 256 265 266 265 262 256 253 250 251 251 249 245 242 240
240 281 257 232 232 225 216 205 183 184 194 176 200 204 227 213 204 211 205 184 301 311 211 277 243 260 268 263 263 264 254 250 249 248 249 246 242 241
214 260 299 277 218 213 228 223 216 207 201 195 209 208 215 210 183 185 211 195 225 247 141 266 239 264 271 269 270 260 256 251 247 248 247 245 243 242
217 234 252 262 236 205 202 211 221 215 225 226 233 254 224 218 204 197 205 208 241 252 178 259 219 262 266 268 259 255 254 250 248 246 244 244 245 242
236 220 229 233 226 209 198 207 212 224 238 239 240 251 261 256 248 146 230 216 258 226 194 217 246 258 263 257 249 245 245 245 246 247 246 242 242 247
233 245 249 251 230 221 205 211 225 227 208 211 229 255 258 260 265 230 231 237 244 313 218 191 208 194 299 282 296 243 242 250 256 258 252 247 243 238
356 358 7 27 9 323 216 224 223 215 246 246 242 244 238 232 244 236 222 225 214 235 212 178 200 166 196 285 276 242 225 240 225 237 246 254 245 229
5 15 358 346 342 338 319 262 245 238 242 247 253 253 244 238 225 239 232 223 228 231 245 199 207 185 185 239 248 266 238 234 214 232 251 261 249 238
11 2 344 327 320 318 289 267 262 232 226 235 243 239 233 244 227 228 239 241 249 244 246 223 208 198 179 207 220 227 176 248 215 212 228 235 234 230
352 336 318 300 280 262 274 269 253 239 228 236 241 242 226 220 219 183 205 208 174 263 253 241 231 190 205 225 181 229 203 228 221 208 204 226 239 238
324 314 312 309 308 318 305 284 259 250 241 242 240 235 227 209 230 196 214 179 208 236 263 264 234 235 239 187 210 227 232 223 209 193 173 200 228 230
300 294 293 291 290 310 308 307 332 339 336 328 281 239 227 226 237 237 195 204 228 241 247 220 158 71 349 258 222 243 213 227 199 194 191 209 231 218
277 272 272 353 18 9 4 349 324 332 334 316 312 305 285 275 256 234 227 218 238 241 246 197 179 181 224 251 258 212 225 223 177 188 203 208 218 207
19 12 13 13 15 9 355 339 329 338 337 326 319 312 303 275 280 263 248 242 238 243 244 203 203 206 217 232 219 253 212 211 202 218 210 204 232 224
4 0 2 0 356 348 336 332 337 333 329 326 319 310 305 294 289 274 268 255 252 240 250 243 232 228 213 87 282 253 244 223 219 213 177 194 182 191
359 353 350 349 341 337 338 335 330 330 328 324 320 310 305 298 294 288 281 275 265 254 252 256 229 170 182 217 241 241 232 265 223 240 229 189 173 209
348 342 341 335 336 334 337 337 328 314 308 301 296 306 315 311 308 293 285 279 272 270 263 265 225 194 223 222 233 246 220 201 188 207 221 219 230 260